Location: Bühlhof
(48.7849°N, 8.6361°E)
Time: 18:12:55
(UTC+00:00)

Cosmos 1821 Rocket - Visible Passes

Search period start: 11 April 2026 00:00
Search period end: 21 April 2026 00:00
Orbit: 945 x 1002 km, 82.9° (Epoch: 11 April)

Date Brightness Start Highest point End Pass type
(mag) Time Alt. Az. Time Alt. Az. Time Alt. Az.
11 Apr 5.8 18:40:13 10° E 18:41:45 11° ENE 18:43:16 10° ENE visible
11 Apr 4.0 20:22:24 28° SSE 20:25:45 64° E 20:32:00 10° NNE visible
11 Apr 5.8 22:06:58 11° WSW 22:11:39 26° WNW 22:16:50 10° N visible
12 Apr 5.3 19:01:46 10° ESE 19:06:01 20° E 19:10:19 10° NE visible
12 Apr 4.0 20:46:15 21° SSW 20:50:35 79° W 20:56:57 10° N visible
12 Apr 6.4 22:33:23 10° W 22:37:06 16° WNW 22:40:51 10° NNW visible
13 Apr 4.7 19:25:26 12° SE 19:30:28 33° E 19:35:58 10° NNE visible
13 Apr 4.8 21:09:58 12° SSW 21:15:35 48° WNW 21:21:43 10° N visible
14 Apr 4.1 19:49:03 10° SSE 19:55:04 54° E 20:01:13 10° NNE visible
14 Apr 5.7 21:35:23 10° SW 21:40:47 30° WNW 21:46:16 10° N visible
15 Apr 4.0 20:13:36 10° S 20:19:51 89° E 20:26:14 10° N visible
15 Apr 6.3 22:01:53 10° WSW 22:06:09 19° WNW 22:10:29 10° NNW visible
16 Apr 4.9 18:54:41 10° SE 18:59:50 28° E 19:05:04 10° NNE visible
16 Apr 4.6 20:38:40 10° SSW 20:44:47 56° WNW 20:51:03 10° N visible
16 Apr 6.7 22:29:45 10° WNW 22:31:44 11° NW 22:33:43 10° NW visible
17 Apr 4.3 19:18:29 10° SSE 19:24:23 46° E 19:30:24 10° NNE visible
17 Apr 5.5 21:04:16 10° SW 21:09:55 35° WNW 21:15:40 10° N visible
18 Apr 4.0 19:42:52 10° S 19:49:06 77° E 19:55:29 10° NNE visible
18 Apr 6.2 21:30:30 10° WSW 21:35:14 22° WNW 21:40:02 10° NNW visible
19 Apr 4.4 20:07:46 10° SSW 20:14:00 66° WNW 20:20:22 10° N visible
19 Apr 6.7 21:57:45 10° W 22:00:44 14° NW 22:03:46 10° NNW visible
20 Apr 4.5 18:47:59 10° SSE 18:53:44 40° E 18:59:34 10° NNE visible
20 Apr 5.3 20:33:12 10° SW 20:39:04 40° WNW 20:45:03 10° N visible
